Вернуться в каталог

STARLINK-4454

АктивенСвязьPO
NORAD 53499·PAYLOAD·🇺🇸 United States

Запущен Aug 12, 2022 с Vandenberg Space Force Base

Loading…

Ближайшие Пролёты (ближайшие 24 часа)

TLE

СвежийSource: CelesTrak SupGP

Эпоха: Sep 15, 2026, 01:58 UTC

1 53499C 22099AL  26258.08243056  .00425040  00000+0  16377-2 0  2581
2 53499  97.6050  26.9292 0001510  87.6907 159.4461 15.87071327    15

Отслеживайте STARLINK-4454 в реальном времени с AllMySat

Download on the App Store